Terug naar catalogus

STARLINK-6183

ActiefCommunicatieVLEO
NORAD 56905·PAYLOAD·🇺🇸 United States

Gelanceerd Jun 12, 2023 vanaf Cape Canaveral Space Force Station

Loading…

Volgende Passages (komende 24 uur)

TLE

VersSource: CelesTrak SupGP

Epoch: Sep 15, 2026, 01:56 UTC

1 56905C 23083AF  26258.08104167 -.00004698  00000+0 -17021-3 0  2581
2 56905  43.0005  80.7341 0001653 266.7228 231.3027 15.27570863    13

Volg STARLINK-6183 in realtime met AllMySat

Download on the App Store